Flag for U.S.A. Weather past 2 weeks in Butte, Montana, U.S.A.

Now
59 °F

Rain. Mostly cloudy.


Feels Like: 55 °F
Forecast: 46 / 67 °F
Wind: 21 mph from South

Location: Mooney Airport

Current Time: Aug 30, 2015 at 4:30:32 AM

Latest Report: Aug 30, 2015 at 3:53 AM


Visibility: 7 mi

Pressure: 29.80 "Hg (24.40 "Hg at 1685m altitude)

Humidity: 69%

Dew point: 49 °F

Location of ButteLocation

Historic Weather in Butte — Graph

°F

Butte temperature yesterday

Maximum temperature yesterday: 85 °F (at 2:53 PM)
Minimum temperature yesterday: 55 °F (at 6:53 AM)
Average temperature yesterday: 68 °F

Past Weeks' High & Low Weather Summary

 TemperatureHumidityPressure
High86 °F (Aug 26, 1:53 PM)90% (Aug 19, 5:53 AM)30.24 "Hg (Aug 19, 5:53 AM)
Low34 °F (Aug 23, 5:53 AM)10% (Aug 26, 1:53 PM)29.63 "Hg (Aug 21, 4:53 PM)
Average61 °F45%30.00 "Hg
* Reported Aug 15 2:53 AM — Aug 30 2:53 AM, Butte, Weather by CustomWeather, © 2015

Note: Actual official high and low records may vary slightly from our data, if they occured in-between our weather recording intervals... More about our weather records

Advertising

Butte weather history for previous 24 hours

 ConditionsComfort  
Time TempWeatherWind HumidityBarometerVisibility
2:53 AM
Sun, Aug 30
59 °FPartly cloudy.6 mph64%29.75 "Hg2 mi
2:03 AM60 °FLight rain. Mostly cloudy.No wind60%29.99 "Hg2 mi
1:53 AM59 °FOvercast.5 mph67%29.78 "Hg3 mi
12:53 AM61 °FPassing clouds.3 mph52%29.78 "Hg2 mi
11:53 PM
Sat, Aug 29
65 °FClear.No wind44%29.75 "Hg2 mi
10:53 PM64 °FClear.7 mph56%29.74 "Hg7 mi
9:53 PM67 °FClear.3 mph51%29.72 "Hg10 mi
8:53 PM65 °FSunny.6 mph68%29.74 "Hg10 mi
7:53 PM72 °FSunny.No wind43%29.74 "Hg10 mi
7:00 PM76 °FThundershowers. Passing clouds.6 mph35%29.89 "Hg10 mi
5:53 PM74 °FPartly sunny.No wind45%29.74 "Hg10 mi
4:53 PM73 °FSunny.16 mph46%29.72 "Hg10 mi
3:59 PM73 °FThundershowers. Overcast.16 mph43%29.95 "Hg7 mi
2:53 PM85 °FPassing clouds.16 mph19%29.72 "Hg10 mi
1:53 PM84 °FSunny.21 mph19%29.77 "Hg10 mi
12:53 PM80 °FSunny.22 mph22%29.80 "Hg10 mi
11:53 AM79 °FSunny.16 mph25%29.81 "Hg7 mi
10:53 AM76 °FSunny.13 mph27%29.83 "Hg4 mi
9:53 AM75 °FHaze.12 mph27%29.85 "Hg4 mi
9:03 AM69 °FHaze.8 mph36%30.06 "Hg2 mi
8:53 AM66 °FHaze.5 mph42%29.88 "Hg2 mi
7:53 AM56 °FScattered clouds.5 mph62%29.91 "Hg1 mi
6:53 AM55 °FPassing clouds.No wind64%29.91 "Hg2 mi
5:53 AM56 °FPassing clouds.No wind62%29.93 "Hg2 mi
4:53 AM58 °FClear.No wind56%29.92 "Hg2 mi
Weather by CustomWeather, © 2015

See weather overviewHow to use our weather pages